Rochelle, IL

5:27 PM CDT on April 23, 2017 (GMT -0500)
Rochelle

Weather History for KRPJ - February, 2013

Change the Weather History Date:

Tuesday, February 19, 2013

  Actual Average (KRFD) Record (KRFD)
Temperature  
Mean Temperature 13 °F -  
Max Temperature 19 °F 34 °F 67 °F (2017)
Min Temperature 7 °F 20 °F -16 °F (1979)
Degree Days  
Heating Degree Days 52    
Moisture  
Dew Point 8 °F    
Average Humidity 80    
Maximum Humidity 86    
Minimum Humidity 73    
Precipitation  
Precipitation 0.00 in - - ()
Sea Level Pressure  
Sea Level Pressure 29.95 in    
Wind  
Wind Speed 25 mph (WNW)    
Max Wind Speed 34 mph    
Max Gust Speed 43 mph    
Visibility 7 miles    
Events Snow    
Averages and records for this station are not official NWS values.
T = Trace of Precipitation, MM = Missing Value Source: NWS Daily Summary

Daily Weather History Graph

Daily Weather History Graph

Search for Another Location

Airport or City:

Trip Planner

Search our weather history database for the weather conditions in past years. The results will help you decide how hot, cold, wet, or windy it might be!

Date:

Astronomy

Feb. 19, 2013 Rise Set
Actual Time 6:46 AM CST 5:34 PM CST
Civil Twilight 6:17 AM CST 6:03 PM CST
Nautical Twilight 5:45 AM CST 6:35 PM CST
Astronomical Twilight 5:13 AM CST 7:07 PM CST
Moon 12:03 PM CST (2/19) 2:20 AM CST (2/19)
Length of Visible Light 11h 45m
Length of Day
10h 48m
Waxing Gibbous, 67% of the Moon is Illuminated
Feb 19
Waxing Gibbous
Feb 25
Full
Mar 4
Last Quarter
Mar 11
New
Mar 19
First Quarter

Hourly Weather History & Observations

Time (CST) Temp. Windchill Dew Point Humidity Pressure Visibility Wind Dir Wind Speed Gust Speed Precip Events Conditions
1:35 AM 19.9 °F 2.2 °F 16.3 °F 86% 29.68 in 10.0 mi West 26.5 mph 35.7 mph N/A   Unknown
1:55 AM 19.0 °F 0.0 °F 14.5 °F 83% 29.69 in 10.0 mi West 29.9 mph 38.0 mph N/A   Overcast
2:15 AM 18.3 °F -1.8 °F 13.8 °F 83% 29.69 in 10.0 mi West 33.4 mph 40.3 mph N/A   Unknown
2:35 AM 17.4 °F -3.3 °F 12.6 °F 81% 29.70 in 10.0 mi West 34.5 mph 42.6 mph N/A   Unknown
2:55 AM 17.4 °F -0.2 °F 13.3 °F 84% 29.71 in 10.0 mi West 23.0 mph 32.2 mph N/A   Overcast
3:35 AM 16.3 °F -3.0 °F 11.8 °F 82% 29.72 in 7.0 mi West 27.6 mph 40.3 mph N/A Snow Light Snow
4:15 AM 15.6 °F -2.9 °F 12.0 °F 86% 29.74 in 5.0 mi West 24.2 mph 33.4 mph N/A Snow Light Snow
4:35 AM 14.9 °F -4.3 °F 11.3 °F 86% 29.74 in 4.0 mi West 25.3 mph 32.2 mph N/A Snow Light Snow
4:55 AM 14.4 °F -4.6 °F 10.0 °F 83% 29.75 in 4.0 mi West 24.2 mph 35.7 mph N/A Snow Light Snow
5:15 AM 14.5 °F -2.3 °F 10.6 °F 84% 29.76 in 5.0 mi West 18.4 mph - N/A Snow Light Snow
5:35 AM 13.5 °F -6.9 °F 9.5 °F 84% 29.77 in 3.0 mi West 27.6 mph 31.1 mph N/A Snow Light Snow
5:55 AM 12.9 °F -6.5 °F 8.4 °F 82% 29.77 in 5.0 mi West 24.2 mph 34.5 mph N/A Snow Light Snow
6:15 AM 12.9 °F -6.9 °F 8.1 °F 81% 29.78 in 10.0 mi West 25.3 mph 33.4 mph N/A   Overcast
6:35 AM 12.2 °F -7.5 °F 7.9 °F 83% 29.79 in 7.0 mi West 24.2 mph 29.9 mph N/A Snow Light Snow
6:55 AM 12.0 °F -8.5 °F 7.5 °F 82% 29.81 in 4.0 mi West 26.5 mph 33.4 mph N/A   Haze
7:15 AM 11.3 °F -9.8 °F 7.2 °F 83% 29.82 in 4.0 mi West 27.6 mph 33.4 mph N/A   Overcast
7:35 AM 10.8 °F -10.5 °F 5.9 °F 81% 29.83 in 5.0 mi West 27.6 mph 33.4 mph N/A   Haze
8:35 AM 10.8 °F -9.0 °F 6.3 °F 82% 29.86 in 2.5 mi West 23.0 mph 31.1 mph N/A   Haze
8:55 AM 10.4 °F -11.0 °F 5.9 °F 82% 29.87 in 2.0 mi West 27.6 mph 33.4 mph N/A   Overcast
9:15 AM 10.6 °F -10.4 °F 5.2 °F 79% 29.88 in - West 26.5 mph - N/A   Unknown
9:35 AM 11.3 °F -8.7 °F 6.8 °F 82% 29.89 in 7.0 mi West 24.2 mph 29.9 mph N/A   Overcast
9:55 AM 11.3 °F -9.8 °F 6.6 °F 81% 29.89 in 5.0 mi West 27.6 mph 32.2 mph N/A   Overcast
10:15 AM 11.7 °F -9.7 °F 7.0 °F 81% 29.90 in 5.0 mi West 28.8 mph 33.4 mph N/A   Overcast
10:35 AM 11.8 °F -9.1 °F 7.3 °F 82% 29.91 in 4.0 mi West 27.6 mph 32.2 mph N/A   Haze
10:55 AM 11.8 °F -9.1 °F 6.1 °F 78% 29.92 in 5.0 mi West 27.6 mph - N/A   Haze
11:15 AM 12.2 °F -7.9 °F 7.3 °F 81% 29.93 in 5.0 mi West 25.3 mph 32.2 mph N/A   Haze
11:35 AM 12.6 °F -7.8 °F 7.5 °F 80% 29.93 in 5.0 mi West 26.5 mph 32.2 mph N/A   Haze
11:55 AM 12.9 °F -7.3 °F 7.3 °F 78% 29.93 in 7.0 mi West 26.5 mph 32.2 mph N/A   Overcast
12:15 PM 12.9 °F -7.3 °F 7.0 °F 77% 29.94 in 7.0 mi West 26.5 mph 29.9 mph N/A   Overcast
12:35 PM 13.1 °F -7.4 °F 7.7 °F 79% 29.94 in 7.0 mi West 27.6 mph 31.1 mph N/A   Overcast
12:55 PM 12.6 °F -8.1 °F 6.8 °F 78% 29.95 in 7.0 mi West 27.6 mph 34.5 mph N/A   Overcast
1:15 PM 12.9 °F -6.1 °F 7.5 °F 79% 29.96 in 5.0 mi West 23.0 mph 28.8 mph N/A   Haze
1:35 PM 13.1 °F -5.9 °F 8.1 °F 80% 29.96 in 4.0 mi West 23.0 mph 33.4 mph N/A   Haze
1:55 PM 13.5 °F -6.9 °F 8.4 °F 80% 29.96 in 5.0 mi West 27.6 mph 33.4 mph N/A   Haze
2:15 PM 13.5 °F -6.9 °F 8.4 °F 80% 29.97 in 4.0 mi West 27.6 mph 35.7 mph N/A   Haze
2:35 PM 13.8 °F -6.4 °F 8.2 °F 78% 29.99 in 7.0 mi WNW 27.6 mph 33.4 mph N/A   Overcast
2:55 PM 14.0 °F -5.5 °F 9.0 °F 80% 29.99 in 4.0 mi West 25.3 mph 32.2 mph N/A   Haze
3:15 PM 14.0 °F -4.7 °F 9.3 °F 82% 30.01 in 4.0 mi WNW 23.0 mph 31.1 mph N/A   Haze
3:35 PM 14.7 °F -4.5 °F 9.9 °F 81% 30.01 in 7.0 mi WNW 25.3 mph 28.8 mph N/A   Overcast
3:55 PM 14.5 °F -3.6 °F 9.3 °F 80% 30.02 in 7.0 mi West 21.9 mph 27.6 mph N/A   Overcast
4:15 PM 14.7 °F -2.9 °F 9.5 °F 80% 30.03 in 5.0 mi WNW 20.7 mph 29.9 mph N/A Snow Light Snow
4:35 PM 14.7 °F -3.4 °F 8.8 °F 77% 30.04 in 10.0 mi WNW 21.9 mph - N/A   Overcast
4:55 PM 14.7 °F -2.9 °F 9.3 °F 79% 30.04 in 7.0 mi WNW 20.7 mph 27.6 mph N/A   Overcast
5:15 PM 14.5 °F -2.3 °F 8.1 °F 75% 30.05 in 10.0 mi WNW 18.4 mph 27.6 mph N/A   Overcast
6:55 PM 12.9 °F -3.4 °F 7.0 °F 77% 30.10 in 10.0 mi WNW 16.1 mph 21.9 mph N/A   Scattered Clouds
7:15 PM 12.9 °F -3.4 °F 7.5 °F 79% 30.11 in 10.0 mi WNW 16.1 mph - N/A   Mostly Cloudy
7:35 PM 12.7 °F -4.6 °F 7.3 °F 79% 30.12 in 10.0 mi NW 18.4 mph 25.3 mph N/A   Mostly Cloudy
8:15 PM 11.3 °F -7.4 °F 5.2 °F 76% 30.14 in 10.0 mi NW 20.7 mph 24.2 mph N/A   Clear
8:35 PM 10.8 °F -8.1 °F 3.9 °F 74% 30.14 in 10.0 mi NW 20.7 mph 28.8 mph N/A   Clear
8:55 PM 10.2 °F -9.3 °F 3.2 °F 73% 30.16 in 10.0 mi WNW 21.9 mph 32.2 mph N/A   Clear
9:15 PM 9.5 °F -8.8 °F 3.2 °F 76% 30.17 in 10.0 mi NW 18.4 mph 25.3 mph N/A   Clear
9:35 PM 9.1 °F -8.2 °F 2.8 °F 76% 30.17 in 10.0 mi NW 16.1 mph 25.3 mph N/A   Clear
9:55 PM 9.0 °F -6.6 °F 3.0 °F 77% 30.18 in 10.0 mi WNW 12.7 mph 18.4 mph N/A   Clear
10:15 PM 8.6 °F -8.9 °F 2.8 °F 77% 30.18 in 10.0 mi WNW 16.1 mph 23.0 mph N/A   Clear
10:35 PM 8.4 °F -8.6 °F 2.3 °F 76% 30.19 in 10.0 mi NW 15.0 mph 24.2 mph N/A   Clear
10:55 PM 8.1 °F -7.7 °F 2.3 °F 77% 30.20 in 10.0 mi WNW 12.7 mph 18.4 mph N/A   Clear
11:15 PM 7.9 °F -6.4 °F 2.3 °F 78% 30.20 in 10.0 mi NW 10.4 mph - N/A   Clear
11:35 PM 7.7 °F -9.5 °F 2.3 °F 79% 30.21 in 10.0 mi WNW 15.0 mph - N/A   Clear
11:55 PM 7.7 °F -9.5 °F 2.3 °F 79% 30.22 in 10.0 mi WNW 15.0 mph - N/A   Clear